Preview of NWS' New Version of Forecast
This preview is not operational and should not be used for support decisions.

Regional Weather Roundup (RWR)

Issued by Goodland, KS (GLD)

                            
000
ASUS43 KGLD 220408
RWRGLD

GOODLAND FORECAST AREA HOURLY WEATHER ROUNDUP
NATIONAL WEATHER SERVICE GOODLAND KS
900 PM MST MON JAN 21 2019

...OFFICIAL OBSERVATIONS...
  
CITY           SKY/WX    TMP DP  RH WIND       PRES   REMARKS
GOODLAND KS    FOG       27  26  96 N16       29.57R VSB 3/4 WCI  15  
HILL CITY KS   CLOUDY    30  29  96 N16       29.60R WCI  19          
IMPERIAL NEB   CLOUDY    25  19  78 N5        29.66R                  
MCCOOK NEB     CLOUDY    26  24  92 NE12      29.64R FOG     WCI  16  
AKRON CO       FOG       25  24  96 E12       29.58R VSB 1/2 WCI  14  
BURLINGTON CO  FOG       27  26  96 N14       29.55R VSB 1/2 WCI  16  
LIMON CO       CLOUDY    30  27  88 N8        29.54R                  
$$

...UNOFFICIAL OBSERVATIONS...
  
CITY           SKY/WX    TMP DP  RH WIND       PRES   REMARKS
COLBY KS       FOG       27  27 100 N10       29.61R VSB 1   WCI  17  
SHARON SPRINGS   N/A     27  25  92 N12         N/A  WCI  17          
KIT CARSON CO    N/A     28  23  82 MISG        N/A                   
YUMA CO        FOG       23  21  93 N7        29.60R VSB 1/4          
$$